Date String (YYYY-MM-DD hh:mm:ss) UTC,Instrument flags,Ambient pressure (hPa),Sample flow (lpm),Bypass flow (lpm),Sample temperature (°C),Ambient temperature (°C),ASC tube jacket temperature (°C),LED temperature (°C),Box temperature (°C),Sample RH (%),Span deviation,Mass concentration (μg/m³),Mass concentration (μg/m³),Mass concentration (μg/m³)
DateTimeUTC,F1_M11,P_M11,Q1_M11,Q2_M11,T1_M11,T2_M11,T3_M11,T4_M11,T5_M11,U1_M11,ZSPAN_M11,X0_M11,X2_M11,X1_M11
2022-04-13 12:00:00,,0819.6,5.00,0.00,22.6,23.0,00.0,31.5,24.5,06.9,0000.0,0010.89,0005.98,0005.45
2022-04-13 12:01:00,,0819.5,4.99,0.00,22.6,22.6,00.0,31.5,24.4,06.9,0000.0,0011.05,0006.01,0005.45
2022-04-13 12:02:00,,0819.5,5.01,0.00,22.5,22.2,00.0,31.5,24.2,06.9,0000.0,0011.01,0006.02,0005.46
2022-04-13 12:03:00,,0819.5,5.00,0.00,22.4,21.9,00.0,31.4,24.1,06.9,0000.0,0010.35,0006.03,0005.46
2022-04-13 12:04:00,,0819.5,5.00,0.00,22.4,21.6,00.0,31.4,23.9,07.0,0000.0,0010.32,0005.99,0005.45
2022-04-13 12:05:00,,0819.5,5.00,0.00,22.3,21.3,00.0,31.4,23.8,07.0,0000.0,0010.45,0006.02,0005.45
2022-04-13 12:06:00,,0819.5,5.00,0.00,22.2,21.1,00.0,31.4,23.7,07.0,0000.0,0010.26,0006.06,0005.48
2022-04-13 12:07:00,,0819.4,5.00,0.00,22.1,21.0,00.0,31.3,23.7,07.0,0000.0,0009.92,0006.07,0005.51
2022-04-13 12:08:00,,0819.4,5.00,0.00,22.1,20.9,00.0,31.3,23.6,07.1,0000.0,0009.93,0006.12,0005.54
2022-04-13 12:09:00,,0819.4,4.99,0.00,22.0,20.8,00.0,31.3,23.5,07.1,0000.0,0009.86,0006.15,0005.56
2022-04-13 12:10:00,,0819.4,5.00,0.00,21.9,20.8,00.0,31.2,23.5,07.1,0000.0,0009.73,0006.20,0005.59
2022-04-13 12:11:00,,0819.4,5.01,0.00,22.0,21.4,00.0,31.2,23.6,07.1,0000.0,0009.76,0006.23,0005.64
2022-04-13 12:12:00,,0819.4,4.99,0.00,22.1,22.3,00.0,31.3,23.9,07.1,0000.0,0009.70,0006.23,0005.68
2022-04-13 12:13:00,,0819.4,5.01,0.00,22.3,23.1,00.0,31.3,24.2,07.0,0000.0,0009.81,0006.26,0005.70
2022-04-13 12:14:00,,0819.4,5.01,0.00,22.4,23.2,00.0,31.3,24.3,07.0,0000.0,0010.04,0006.33,0005.74
2022-04-13 12:15:00,,0819.4,5.00,0.00,22.4,22.8,00.0,31.3,24.3,07.0,0000.0,0010.28,0006.40,0005.78
2022-04-13 12:16:00,,0819.4,4.99,0.00,22.4,22.5,00.0,31.3,24.1,07.0,0000.0,0010.21,0006.41,0005.82
2022-04-13 12:17:00,,0819.4,5.00,0.00,22.4,22.2,00.0,31.3,24.1,07.0,0000.0,0010.24,0006.46,0005.85
2022-04-13 12:18:00,,0819.4,5.00,0.00,22.3,22.0,00.0,31.3,24.1,07.0,0000.0,0010.12,0006.51,0005.88
2022-04-13 12:19:00,,0819.3,5.00,0.00,22.3,21.8,00.0,31.3,24.0,07.0,0000.0,0009.97,0006.56,0005.92
2022-04-13 12:20:00,,0819.4,4.99,0.00,22.3,21.7,00.0,31.3,24.0,07.0,0000.0,0009.76,0006.55,0005.95
2022-04-13 12:21:00,,0819.4,4.99,0.00,22.3,21.5,00.0,31.3,24.0,07.0,0000.0,0009.71,0006.54,0005.95
2022-04-13 12:22:00,,0819.5,5.00,0.00,22.3,21.4,00.0,31.3,24.0,07.0,0000.0,0009.81,0006.56,0005.95
2022-04-13 12:23:00,,0819.5,5.01,0.00,22.2,21.4,00.0,31.3,23.9,07.0,0000.0,0011.29,0006.56,0005.96
2022-04-13 12:24:00,,0819.5,5.00,0.00,22.2,21.3,00.0,31.3,23.9,07.0,0000.0,0011.38,0006.57,0005.99
2022-04-13 12:25:00,,0819.5,5.00,0.00,22.2,21.2,00.0,31.2,23.9,07.0,0000.0,0011.22,0006.58,0006.01
2022-04-13 12:26:00,,0819.5,5.00,0.00,22.2,21.2,00.0,31.2,23.9,07.0,0000.0,0011.15,0006.62,0006.03
2022-04-13 12:27:00,,0819.6,5.01,0.00,22.2,21.4,00.0,31.2,23.9,07.0,0000.0,0012.08,0006.66,0006.05
2022-04-13 12:28:00,,0819.6,4.99,0.00,22.3,22.2,00.0,31.3,24.1,07.0,0000.0,0012.33,0006.68,0006.08
2022-04-13 12:29:00,,0819.7,5.00,0.00,22.4,23.0,00.0,31.3,24.3,06.9,0000.0,0012.56,0006.69,0006.09
2022-04-13 12:30:00,,0819.8,5.00,0.00,22.5,23.1,00.0,31.3,24.4,06.9,0000.0,0012.90,0006.69,0006.10
2022-04-13 12:31:00,,0819.7,5.00,0.00,22.5,22.8,00.0,31.3,24.4,06.9,0000.0,0013.03,0006.75,0006.12
2022-04-13 12:32:00,,0819.7,5.01,0.00,22.5,22.6,00.0,31.4,24.4,06.9,0000.0,0013.10,0006.81,0006.14
2022-04-13 12:33:00,,0819.7,5.01,0.00,22.5,22.2,00.0,31.4,24.2,06.9,0000.0,0013.28,0006.84,0006.15
2022-04-13 12:34:00,,0819.6,5.00,0.00,22.4,21.7,00.0,31.3,24.1,06.9,0000.0,0011.97,0006.87,0006.17
2022-04-13 12:35:00,,0819.6,5.00,0.00,22.3,21.5,00.0,31.3,24.0,07.0,0000.0,0011.64,0006.87,0006.17
2022-04-13 12:36:00,,0819.7,5.00,0.00,22.3,21.3,00.0,31.3,23.9,07.0,0000.0,0011.86,0006.87,0006.19
2022-04-13 12:37:00,,0819.6,4.99,0.00,22.3,21.1,00.0,31.3,23.9,07.0,0000.0,0012.33,0006.81,0006.18
2022-04-13 12:38:00,,0819.5,5.01,0.00,22.2,21.0,00.0,31.3,23.8,07.1,0000.0,0011.53,0006.79,0006.20
2022-04-13 12:39:00,,0819.6,4.99,0.00,22.1,20.9,00.0,31.2,23.8,07.1,0000.0,0011.13,0006.77,0006.20
2022-04-13 12:40:00,,0819.6,4.99,0.00,22.1,20.8,00.0,31.2,23.7,07.2,0000.0,0011.65,0006.76,0006.21
2022-04-13 12:41:00,,0819.6,5.00,0.00,22.1,21.2,00.0,31.2,23.7,07.2,0000.0,0011.29,0006.75,0006.19
2022-04-13 12:42:00,,0819.7,5.01,0.00,22.2,22.2,00.0,31.3,24.0,07.2,0000.0,0011.21,0006.72,0006.18
2022-04-13 12:43:00,,0819.6,5.01,0.00,22.4,23.2,00.0,31.3,24.3,07.1,0000.0,0011.83,0006.69,0006.18
2022-04-13 12:44:00,,0819.7,4.99,0.00,22.5,23.2,00.0,31.3,24.4,07.1,0000.0,0012.08,0006.67,0006.18
2022-04-13 12:45:00,,0819.7,5.00,0.00,22.5,22.9,00.0,31.3,24.4,07.1,0000.0,0012.31,0006.67,0006.17
2022-04-13 12:46:00,,0819.7,5.01,0.00,22.5,22.5,00.0,31.3,24.3,07.1,0000.0,0012.86,0006.69,0006.17
2022-04-13 12:47:00,,0819.8,4.98,0.00,22.4,22.3,00.0,31.3,24.3,07.1,0000.0,0012.85,0006.71,0006.16
2022-04-13 12:48:00,,0819.8,5.01,0.00,22.4,22.1,00.0,31.3,24.2,07.1,0000.0,0012.37,0006.78,0006.17
2022-04-13 12:49:00,,0819.8,5.01,0.00,22.4,21.9,00.0,31.3,24.2,07.2,0000.0,0012.81,0006.80,0006.17
2022-04-13 12:50:00,,0819.8,5.00,0.00,22.4,21.8,00.0,31.3,24.1,07.2,0000.0,0013.17,0006.78,0006.17
2022-04-13 12:51:00,,0819.8,5.01,0.00,22.4,21.7,00.0,31.3,24.1,07.2,0000.0,0012.57,0006.76,0006.17
2022-04-13 12:52:00,,0819.9,5.00,0.00,22.4,21.6,00.0,31.3,24.1,07.3,0000.0,0012.41,0006.78,0006.18
2022-04-13 12:53:00,,0819.8,5.01,0.00,22.3,21.5,00.0,31.3,24.1,07.3,0000.0,0012.40,0006.77,0006.18
2022-04-13 12:54:00,,0819.8,5.00,0.00,22.3,21.4,00.0,31.3,24.0,07.3,0000.0,0012.18,0006.78,0006.20
2022-04-13 12:55:00,,0819.8,5.00,0.00,22.3,21.4,00.0,31.3,24.0,07.4,0000.0,0011.75,0006.78,0006.21
2022-04-13 12:56:00,,0819.8,4.99,0.00,22.3,21.3,00.0,31.3,24.0,07.4,0000.0,0011.54,0006.80,0006.23
2022-04-13 12:57:00,,0819.9,4.99,0.00,22.3,21.3,00.0,31.3,24.0,07.4,0000.0,0011.34,0006.85,0006.27
2022-04-13 12:58:00,,0819.8,5.01,0.00,22.3,21.7,00.0,31.3,24.0,07.4,0000.0,0011.52,0006.91,0006.30
2022-04-13 12:59:00,,0819.8,4.99,0.00,22.4,22.6,00.0,31.3,24.2,07.4,0000.0,0011.51,0006.91,0006.33
